Vorticity
-4 4 12 3 30 6 -7 -18 9 -4 5 7 15 7 5 6 9 10 7 8 8 8 7 5 5 6 7 8 8 11 13 15 19 23 25 24 21 18
6 -7 24 -19 8 25 4 6 2 8 12 8 2 5 8 12 10 10 9 8 7 6 6 7 8 8 12 13 16 17 20 22 19 16 15 13 13 14
6 13 -5 8 17 -1 15 5 21 11 13 9 5 9 8 9 8 8 8 6 6 10 10 11 15 18 17 20 21 20 16 13 13 13 11 10 12 14
17 -2 -1 22 11 -4 12 8 12 5 6 10 12 7 8 9 7 5 6 8 8 12 17 17 17 18 19 17 14 12 12 12 13 11 10 11 10 10
-8 29 13 27 5 12 10 7 6 10 10 7 8 8 7 5 5 7 8 11 14 18 19 21 22 19 16 17 14 10 12 10 9 8 8 10 13 16
28 8 7 13 12 8 8 9 7 7 8 8 7 6 6 8 10 12 10 14 19 24 22 19 17 17 14 11 11 10 9 8 7 7 8 9 10 14
18 12 13 7 10 11 5 8 9 9 8 6 7 8 9 11 11 13 20 21 26 20 13 16 18 13 13 9 10 12 13 12 11 9 9 9 9 11
11 7 10 6 11 8 9 8 7 6 7 7 8 12 12 13 19 20 21 16 13 12 12 12 14 12 11 10 11 15 17 15 13 12 11 10 9 10
9 8 12 7 8 7 6 5 6 8 10 10 13 15 19 19 20 15 11 12 11 10 13 10 10 11 11 13 13 16 16 13 11 11 11 10 9 11
7 7 9 7 6 5 5 8 12 11 9 15 20 23 21 15 11 10 9 8 9 11 12 14 11 14 15 15 15 17 16 16 13 10 8 7 8 10
8 7 6 4 5 6 8 10 11 14 20 23 22 16 11 11 9 9 10 9 8 9 13 12 16 16 15 15 13 17 19 18 16 15 14 10 10 12
7 4 3 6 9 13 13 13 16 19 21 21 14 13 10 11 11 10 8 9 10 11 19 9 14 13 19 17 17 14 14 16 18 16 15 14 12 11
4 6 9 13 14 13 15 17 18 20 19 13 11 11 12 11 10 9 11 10 10 13 15 10 13 14 12 10 18 18 18 17 17 16 15 13 12 12
9 11 12 15 15 16 17 18 21 18 13 10 11 10 9 9 11 10 10 11 13 16 14 11 9 11 9 11 10 14 15 15 16 17 18 18 18 15
14 15 15 17 20 20 20 22 14 11 11 11 10 9 9 10 10 10 12 13 17 18 16 13 10 10 11 10 9 15 14 13 18 17 15 17 18 18
20 22 23 23 21 21 20 12 10 11 10 9 9 9 9 10 11 11 12 12 12 14 13 10 11 11 11 12 12 15 16 16 11 9 9 12 11 14
25 24 22 16 18 14 9 8 10 9 9 9 8 9 9 10 11 12 12 13 11 11 12 14 13 12 13 14 15 16 13 16 15 12 13 13 17 17
24 18 15 19 11 10 10 10 8 9 10 9 9 9 9 10 12 13 11 11 11 11 11 13 14 15 16 18 12 16 17 15 17 19 21 23 28 27
13 18 13 9 8 9 8 11 11 9 11 10 9 9 9 10 9 11 12 13 13 12 13 13 14 12 10 11 19 21 14 17 18 16 11 12 12 15
15 8 7 8 7 9 11 10 9 9 8 7 7 7 7 9 11 10 11 11 12 11 12 13 15 12 11 13 11 21 18 12 7 11 9 16 24 25
8 6 7 6 8 9 9 9 8 9 9 8 8 9 10 10 10 12 13 12 11 11 11 14 15 14 19 11 12 14 4 3 1 3 6 12 -4 34
6 6 6 7 8 8 7 8 8 8 8 7 7 8 10 11 9 10 13 11 13 11 12 16 14 18 12 8 8 12 15 7 10 8 -4 0 13 17
7 6 6 7 7 7 7 7 8 9 9 11 10 9 11 15 12 10 15 13 12 10 12 15 11 19 10 8 10 10 7 10 11 9 10 9 10 23
Height
3081 3080 3080 3079 3078 3075 3075 3072 3072 3069 3068 3068 3064 3061 3056 3053 3049 3043 3037 3032 3028 3024 3021 3016 3012 3008 3004 3000 2995 2991 2987 2983 2981 2977 2975 2973 2971 2969
3071 3071 3070 3067 3068 3067 3064 3061 3060 3058 3055 3055 3054 3049 3045 3041 3037 3031 3025 3020 3015 3011 3005 3000 2995 2989 2985 2980 2976 2973 2969 2967 2964 2963 2961 2958 2957 2956
3062 3060 3059 3057 3055 3055 3054 3052 3050 3048 3045 3043 3039 3036 3032 3028 3025 3018 3012 3006 3002 2997 2991 2985 2978 2972 2968 2963 2960 2956 2953 2951 2950 2948 2946 2944 2943 2943
3052 3051 3047 3048 3046 3044 3043 3043 3040 3037 3034 3030 3026 3022 3019 3016 3010 3004 2999 2993 2986 2981 2975 2968 2962 2957 2952 2950 2946 2942 2939 2938 2936 2933 2931 2931 2931 2930
3040 3039 3038 3037 3037 3037 3035 3033 3030 3027 3023 3018 3014 3010 3005 3001 2995 2989 2982 2977 2971 2966 2960 2953 2947 2944 2941 2938 2933 2930 2927 2925 2923 2920 2919 2918 2917 2917
3031 3031 3032 3031 3029 3028 3024 3022 3020 3017 3013 3008 3002 2997 2992 2986 2979 2972 2966 2962 2956 2953 2948 2940 2936 2933 2930 2925 2921 2918 2916 2913 2910 2908 2906 2904 2903 2902
3026 3025 3025 3024 3021 3019 3018 3014 3010 3007 3003 2997 2992 2986 2979 2972 2965 2959 2952 2947 2944 2940 2936 2932 2927 2924 2921 2915 2911 2908 2905 2902 2899 2896 2894 2892 2890 2889
3020 3019 3017 3014 3013 3009 3006 3002 3000 2995 2990 2984 2978 2972 2965 2959 2952 2947 2941 2935 2930 2928 2924 2922 2916 2913 2909 2903 2900 2897 2894 2891 2888 2886 2884 2881 2879 2876
3015 3012 3011 3007 3004 3000 2997 2994 2990 2984 2977 2970 2964 2959 2952 2946 2941 2935 2930 2925 2921 2917 2911 2908 2904 2899 2896 2893 2889 2885 2882 2879 2877 2874 2870 2868 2865 2864
3008 3005 3003 3000 2995 2991 2989 2984 2979 2973 2966 2961 2954 2949 2943 2937 2931 2926 2921 2916 2912 2908 2902 2895 2892 2887 2883 2880 2878 2875 2872 2869 2865 2861 2858 2854 2850 2850
3001 2998 2994 2991 2986 2982 2976 2971 2967 2962 2956 2949 2943 2938 2934 2930 2926 2920 2916 2909 2904 2900 2895 2882 2882 2875 2871 2868 2866 2864 2862 2858 2854 2850 2846 2841 2837 2836
2994 2989 2984 2980 2975 2970 2965 2961 2956 2950 2945 2941 2938 2933 2930 2925 2920 2914 2908 2901 2894 2889 2887 2873 2870 2863 2857 2855 2853 2851 2849 2846 2842 2838 2834 2830 2827 2823
2984 2980 2974 2969 2963 2959 2954 2949 2944 2940 2937 2934 2932 2928 2924 2920 2916 2910 2904 2896 2889 2884 2879 2867 2861 2857 2849 2841 2842 2841 2837 2834 2830 2827 2824 2820 2816 2813
2975 2968 2962 2958 2954 2949 2944 2940 2937 2934 2932 2929 2926 2922 2919 2915 2911 2904 2898 2891 2884 2876 2871 2862 2853 2849 2842 2836 2831 2831 2828 2823 2819 2816 2812 2810 2807 2804
2962 2957 2953 2949 2945 2941 2938 2936 2933 2931 2928 2925 2922 2919 2914 2909 2903 2899 2894 2886 2882 2874 2865 2858 2849 2844 2837 2830 2822 2821 2815 2813 2810 2805 2802 2799 2797 2795
2953 2947 2943 2941 2939 2937 2934 2932 2929 2927 2924 2922 2918 2914 2909 2904 2898 2891 2886 2880 2874 2871 2863 2853 2845 2838 2832 2827 2820 2814 2811 2802 2800 2797 2792 2790 2788 2786
2943 2940 2937 2935 2933 2932 2931 2929 2927 2924 2921 2917 2913 2909 2904 2899 2893 2886 2879 2874 2866 2859 2856 2851 2842 2834 2827 2820 2815 2810 2803 2799 2793 2788 2784 2780 2780 2776
2939 2937 2935 2934 2933 2932 2930 2927 2924 2921 2918 2914 2909 2904 2899 2894 2888 2882 2874 2868 2861 2855 2848 2841 2834 2828 2823 2819 2809 2803 2798 2790 2786 2782 2777 2772 2771 2769
2937 2935 2934 2934 2932 2930 2928 2926 2923 2919 2916 2911 2906 2901 2895 2890 2883 2877 2871 2864 2858 2850 2844 2836 2828 2820 2812 2806 2806 2796 2786 2785 2781 2777 2772 2767 2763 2762
2936 2935 2934 2933 2931 2929 2926 2924 2921 2917 2913 2908 2903 2898 2892 2886 2880 2874 2867 2858 2851 2845 2839 2833 2825 2817 2809 2801 2795 2794 2788 2781 2776 2772 2768 2763 2757 2752
2936 2935 2934 2932 2930 2927 2924 2921 2918 2914 2910 2905 2900 2895 2889 2882 2876 2869 2862 2856 2848 2840 2834 2828 2822 2815 2808 2802 2796 2790 2786 2781 2775 2768 2762 2756 2750 2745
2935 2934 2933 2931 2928 2925 2922 2919 2916 2912 2908 2903 2897 2892 2885 2879 2872 2865 2858 2850 2844 2837 2830 2824 2817 2810 2805 2799 2792 2787 2782 2778 2772 2766 2758 2750 2742 2736
2934 2933 2931 2929 2926 2923 2920 2917 2914 2910 2905 2900 2894 2888 2881 2875 2868 2862 2854 2847 2839 2832 2825 2818 2813 2807 2801 2795 2789 2783 2778 2771 2766 2759 2755 2747 2739 2731